Regional Weather Roundup
Issued by NWS

Home | Current Version | Previous Version | Graphics & Text | Print | Product List | Glossary On
Versions: 1 2 3 4 5 6 7 8 9 10 11 12 13 14 15 16 17 18 19 20 21 22 23 24 25 26 27 28 29 30 31 32 33 34 35 36 37 38 39 40 41 42 43 44 45 46 47 48 49 50
000
ASUS44 KMEG 200510
RWRTN
TENNESSEE HOURLY STATE WEATHER ROUNDUP
NATIONAL WEATHER SERVICE MEMPHIS TN
1100 PM CST SUN FEB 19 2017

TNZ002-004-019-021-049-052-054-088>092-200600-
WEST TENNESSEE

CITY           SKY/WX    TMP DP  RH WIND       PRES   REMARKS
MEMPHIS INTL   CLEAR     64  50  60 E3        30.07F
NWS MEMPHIS      N/A     60 N/A N/A MISG        N/A
JACKSON        CLEAR     50  48  93 CALM      30.10F
UNION CITY     CLEAR    N/A N/A N/A CALM      30.09S
PARIS          CLEAR     50  46  87 SE5       30.12S
HUNTINGDON     CLEAR     52  48  87 CALM      30.10F
$$

TNZ008-025-027-028-033-062-065-066-200600-
NORTH MIDDLE TENNESSEE

CITY           SKY/WX    TMP DP  RH WIND       PRES   REMARKS
NASHVILLE      CLOUDY    53  48  83 CALM      30.15R
PORTLAND       CLEAR     46  46 100 CALM      30.15S
CLARKSVILLE    MOCLDY    52  48  86 CALM      30.13S
SMYRNA         MOCLDY    47  46  97 CALM      30.16R FOG
COOKEVILLE     CLEAR     41  41 100 CALM      30.15R
GALLATIN       CLEAR     46  45  93 CALM      30.18R
CROSSVILLE     CLEAR     43  41  93 CALM      30.18R
$$

TNZ061-075-076-078-094-096-097-200600-
SOUTH MIDDLE TENNESSEE

CITY           SKY/WX    TMP DP  RH WIND       PRES   REMARKS
FAYETTEVILLE   CLEAR     54  48  82 E3        30.15S
TULLAHOMA      CLEAR     45  43  93 CALM      30.16S
WINCHESTER     CLEAR     46  45  93 CALM      30.16S
MCMINNVILLE    CLEAR     45  45 100 CALM      30.15S
COLUMBIA       CLEAR    N/A N/A N/A CALM      30.12S
SHELBYVILLE    CLEAR     50  48  93 E5        30.15S
$$

TNZ017-018-042-046-047-200600-
NORTHEAST TENNESSEE

CITY           SKY/WX    TMP DP  RH WIND       PRES   REMARKS
TRI CITIES     CLEAR     40  38  93 CALM      30.18S
ELIZABETHTON   CLEAR     41  39  93 NE5       30.18S
$$

TNZ012-013-036-069-073-074-200600-
CENTRAL EAST TENNESSEE

CITY           SKY/WX    TMP DP  RH WIND       PRES   REMARKS
KNOXVILLE      PTCLDY    47  42  83 E3        30.16R
OAK RIDGE      CLEAR     45  42  89 CALM      30.18R
GATLINBURG     CLEAR     41  39  93 CALM      30.16R
MORRISTOWN     CLEAR     46  43  87 NE3       30.16R
JACKSBORO      CLEAR     43  43 100 CALM      30.20S FOG
$$

TNZ083-085-099-200600-
SOUTHEAST TENNESSEE

CITY           SKY/WX    TMP DP  RH WIND       PRES   REMARKS
CHATTANOOGA    PTCLDY    49  46  90 CALM      30.17R
$$

SKY/WX REPORTED AS FAIR MEANS FEW OR NO CLOUDS BELOW
12 THOUSAND FEET.





USA.gov is the U.S. government's official web portal to all federal, state and local government web resources and services.